"Pseudo-MPEC" for P20Ueg1

Created 2019 Nov 10 19:07:17 UT using Find_Orb

Click here for an explanation of pseudo-MPECs

 
 Astrometry: 
     P20Ueg1  C2019 11 05$.ZtU?cFbRapIC7SB,y\@D\a#F()$jcyF(SAstrometrycS%,VA#F52
     P20Ueg1  C2019 11 05Y:gafCA0Y\g%p)/Y\/iLpCQ#yrZ27NyxOeupPTR=3p4pYG-h=vn4F52
     P20Ueg1  C2019 11 05?F7rrq+cE^;tJ6DDredacted;vqWG_(-5IJ1=^+=clickO#here6F52
     P20Ueg1  C2019 11 05bSFGotK+?%*ova\CwiXmDq,O5[R%\;for2\b'explanationV3gOF52

Station data:
(F52) Pan-STARRS 2, Haleakala  (N20.707384 W156.255910)  US/Hawaii. 1.8-m
   Ritchey-Chrétien + CCD.

Orbital elements:  P20Ueg1
   Perihelion 2019 Nov 18.398204 +/- 38 TT =  9:33:24 (JD 2458805.898204)
Epoch 2019 Nov  6.0 TT = JDT 2458793.5   Earth MOID: 0.4107   Ma: 0.0225
M 356.61755147 +/- 34               (J2000 ecliptic)          AutoNEOCP
n   0.27281763 +/- 0.366            Peri.  305.13255 +/- 120
a   2.35444071 +/- 2.16             Node   120.79424 +/- 42
e   0.4129095 +/- 0.252             Incl.    6.65400 +/- 20
P   3.61                   H 21.6   G  0.15   U 12.1  SR
q 1.38226965 +/- 0.502    Q 3.32661176 +/- 36.5
From 4 observations 2019 Nov. 5 (45.1 min); mean residual 0".10
Residuals in arcseconds: 
191105 F52  .10-  .07-    191105 F52  .02+  .18+    
191105 F52  .13+  .01+    191105 F52  .09-  .12-    

Ephemerides (geocentric):
Date (UTC) HH   RA              Dec         delta   r     elong  mag " sig PA
---- -- -- --  -------------   -----------  ------ ------ -----  --- ---- ---
2019 11 10 19  05 54 54.817   +06 47 44.83  .48668 1.3841 136.4 22.1  51d   5
2019 11 10 20  05 54 57.417   +06 47 45.91  .48654 1.3841 136.5 22.1  51d   5
2019 11 10 21  05 55 00.012   +06 47 47.01  .48639 1.3841 136.5 22.1  51d   5
2019 11 10 22  05 55 02.602   +06 47 48.15  .48624 1.3841 136.5 22.1  51d   5
2019 11 10 23  05 55 05.188   +06 47 49.31  .48610 1.3840 136.5 22.1  51d   5
2019 11 11 00  05 55 07.769   +06 47 50.50  .48595 1.3840 136.6 22.1  52d   5
2019 11 11 01  05 55 10.345   +06 47 51.73  .48581 1.3840 136.6 22.0  52d   5
2019 11 11 02  05 55 12.917   +06 47 52.98  .48566 1.3840 136.6 22.0  52d   5
2019 11 11 03  05 55 15.485   +06 47 54.26  .48552 1.3840 136.7 22.0  52d   5
2019 11 11 04  05 55 18.048   +06 47 55.58  .48537 1.3839 136.7 22.0  52d   5
2019 11 11 05  05 55 20.606   +06 47 56.92  .48523 1.3839 136.7 22.0  52d   5
2019 11 11 06  05 55 23.159   +06 47 58.29  .48508 1.3839 136.7 22.0  52d   5
2019 11 11 07  05 55 25.708   +06 47 59.69  .48494 1.3839 136.8 22.0  52d   5
2019 11 11 08  05 55 28.253   +06 48 01.13  .48479 1.3839 136.8 22.0  53d   5
2019 11 11 09  05 55 30.793   +06 48 02.59  .48465 1.3838 136.8 22.0  53d   5
2019 11 11 10  05 55 33.328   +06 48 04.08  .48450 1.3838 136.9 22.0  53d   5
2019 11 11 11  05 55 35.859   +06 48 05.60  .48436 1.3838 136.9 22.0  53d   5
2019 11 11 12  05 55 38.385   +06 48 07.15  .48422 1.3838 136.9 22.0  53d   5
2019 11 11 13  05 55 40.906   +06 48 08.74  .48407 1.3838 136.9 22.0  54d   5
2019 11 11 14  05 55 43.423   +06 48 10.35  .48393 1.3838 137.0 22.0  54d   5
2019 11 11 15  05 55 45.935   +06 48 11.99  .48378 1.3837 137.0 22.0  54d   5
2019 11 11 16  05 55 48.443   +06 48 13.66  .48364 1.3837 137.0 22.0  54d   5
2019 11 11 17  05 55 50.946   +06 48 15.37  .48350 1.3837 137.0 22.0  54d   5
2019 11 11 18  05 55 53.445   +06 48 17.10  .48336 1.3837 137.1 22.0  54d   5
2019 11 11 19  05 55 55.938   +06 48 18.86  .48321 1.3837 137.1 22.0  54d   5
2019 11 11 20  05 55 58.428   +06 48 20.66  .48307 1.3836 137.1 22.0  55d   5
2019 11 11 21  05 56 00.912   +06 48 22.48  .48293 1.3836 137.2 22.0  55d   5
2019 11 11 22  05 56 03.392   +06 48 24.34  .48279 1.3836 137.2 22.0  55d   5
2019 11 11 23  05 56 05.867   +06 48 26.23  .48264 1.3836 137.2 22.0  55d   5
2019 11 12 00  05 56 08.338   +06 48 28.14  .48250 1.3836 137.2 22.0  55d   5
2019 11 12 01  05 56 10.804   +06 48 30.09  .48236 1.3836 137.3 22.0  55d   5
2019 11 12 02  05 56 13.266   +06 48 32.07  .48222 1.3835 137.3 22.0  55d   5
2019 11 12 03  05 56 15.722   +06 48 34.08  .48208 1.3835 137.3 22.0  56d   5
2019 11 12 04  05 56 18.175   +06 48 36.12  .48194 1.3835 137.4 22.0  56d   5
2019 11 12 05  05 56 20.622   +06 48 38.19  .48179 1.3835 137.4 22.0  56d   5
2019 11 12 06  05 56 23.065   +06 48 40.29  .48165 1.3835 137.4 22.0  56d   5
2019 11 12 07  05 56 25.503   +06 48 42.42  .48151 1.3835 137.4 22.0  56d   5
2019 11 12 08  05 56 27.937   +06 48 44.59  .48137 1.3834 137.5 22.0  57d   5
2019 11 12 09  05 56 30.366   +06 48 46.78  .48123 1.3834 137.5 22.0  57d   5
2019 11 12 10  05 56 32.790   +06 48 49.01  .48109 1.3834 137.5 22.0  57d   5
2019 11 12 11  05 56 35.210   +06 48 51.27  .48095 1.3834 137.6 22.0  57d   5
2019 11 12 12  05 56 37.625   +06 48 53.56  .48081 1.3834 137.6 22.0  58d   5
2019 11 12 13  05 56 40.035   +06 48 55.88  .48067 1.3834 137.6 22.0  58d   5
2019 11 12 14  05 56 42.441   +06 48 58.23  .48053 1.3834 137.6 22.0  58d   5
2019 11 12 15  05 56 44.842   +06 49 00.61  .48039 1.3833 137.7 22.0  59d   5
2019 11 12 16  05 56 47.239   +06 49 03.02  .48025 1.3833 137.7 22.0  59d   5
2019 11 12 17  05 56 49.630   +06 49 05.47  .48011 1.3833 137.7 22.0  59d   5
2019 11 12 18  05 56 52.018   +06 49 07.95  .47998 1.3833 137.8 22.0  59d   5